GW7085 Weather Reports


time (UTC)temp
C
wind
direction
speed
KPH
gust
KPH
rain 1hr
cm
rain 24hr
cm
rain mn
cm
humidity
%
barometer
mb
20260508145512 20 92 1.6 4.8 0.00 0.00 0.00 37 1018.6
20260508145008 19 51 0.0 1.6 0.00 0.00 0.00 40 1018.6
20260508144506 19 22 1.6 4.8 0.00 0.00 0.00 37 1018.6
20260508144003 19 101 1.6 1.6 0.00 0.00 0.00 39 1018.6
20260508143500 19 40 1.6 3.2 0.00 0.00 0.00 37 1018.6
20260508142956 19 105 1.6 6.4 0.00 0.00 0.00 37 1018.7
20260508142454 19 83 3.2 3.2 0.00 0.00 0.00 40 1018.7
20260508141950 19 36 1.6 3.2 0.00 0.00 0.00 40 1018.7
20260508141447 18 23 1.6 1.6 0.00 0.00 0.00 39 1018.8
20260508140945 18 122 1.6 3.2 0.00 0.00 0.00 41 1018.9
20260508140442 18 41 0.0 3.2 0.00 0.00 0.00 39 1018.8
20260508135937 18 49 0.0 3.2 0.00 0.00 0.00 43 1018.8
20260508135434 18 61 0.0 1.6 0.00 0.00 0.00 46 1019.0
20260508134930 18 48 1.6 1.6 0.00 0.00 0.00 42 1018.7
20260508134427 18 113 0.0 1.6 0.00 0.00 0.00 44 1018.6
20260508133924 18 80 0.0 0.0 0.00 0.00 0.00 46 1018.6
20260508133421 18 72 1.6 1.6 0.00 0.00 0.00 51 1018.6
20260508132918 17 28 0.0 1.6 0.00 0.00 0.00 48 1018.5
20260508132416 17 66 0.0 1.6 0.00 0.00 0.00 50 1018.6
20260508131913 17 70 0.0 1.6 0.00 0.00 0.00 50 1018.7
20260508131408 17 87 1.6 3.2 0.00 0.00 0.00 49 1018.4
20260508130905 17 66 0.0 1.6 0.00 0.00 0.00 53 1018.5
20260508130402 16 74 1.6 1.6 0.00 0.00 0.00 53 1018.5
20260508125857 16 56 1.6 4.8 0.00 0.00 0.00 54 1018.5
20260508125354 15 109 0.0 3.2 0.00 0.00 0.00 55 1018.4
20260508124852 15 78 0.0 1.6 0.00 0.00 0.00 60 1018.5
20260508124349 15 38 1.6 3.2 0.00 0.00 0.00 57 1018.0
20260508123847 15 102 0.0 3.2 0.00 0.00 0.00 60 1018.0
20260508123345 15 50 1.6 4.8 0.00 0.00 0.00 60 1018.1
20260508122841 15 124 3.2 3.2 0.00 0.00 0.00 64 1018.1
20260508122338 14 118 0.0 1.6 0.00 0.00 0.00 68 1018.0
20260508121835 14 83 0.0 1.6 0.00 0.00 0.00 68 1018.0
20260508121334 13 71 0.0 0.0 0.00 0.00 0.00 73 1018.1
20260508120831 12 117 0.0 1.6 0.00 0.00 0.00 75 1018.1
20260508120329 12 96 0.0 1.6 0.00 0.00 0.00 76 1018.1
20260508115826 12 110 0.0 1.6 0.00 0.00 0.00 78 1017.9
20260508115324 12 106 0.0 1.6 0.00 0.00 0.00 81 1017.9
20260508114820 11 105 0.0 0.0 0.00 0.00 0.00 86 1017.8
20260508114317 11 106 0.0 0.0 0.00 0.00 0.00 87 1017.6
20260508113813 11 106 0.0 0.0 0.00 0.00 0.00 90 1017.5
20260508113312 11 106 0.0 0.0 0.00 0.00 0.00 90 1017.4
20260508112808 10 106 0.0 0.0 0.00 0.00 0.00 92 1017.4
20260508112307 10 106 0.0 0.0 0.00 0.00 0.00 95 1017.3
20260508111801 10 106 0.0 0.0 0.00 0.00 0.00 95 1017.1
20260508111259 10 106 0.0 0.0 0.00 0.00 0.00 95 1017.2
20260508110756 10 106 0.0 0.0 0.00 0.00 0.00 95 1017.1
20260508110253 9 106 1.6 3.2 0.00 0.00 0.00 96 1016.9
20260508105753 9 75 0.0 0.0 0.00 0.00 0.00 96 1016.8
20260508105250 9 75 0.0 0.0 0.00 0.00 0.00 96 1016.8
20260508104747 9 75 0.0 0.0 0.00 0.00 0.00 96 1016.7
20260508104244 9 75 0.0 0.0 0.00 0.00 0.00 96 1016.7
20260508103742 9 75 0.0 0.0 0.00 0.00 0.00 96 1016.5
20260508103238 10 75 0.0 0.0 0.00 0.00 0.00 96 1016.1
20260508102735 10 75 0.0 1.6 0.00 0.00 0.00 96 1016.2
20260508102233 10 76 0.0 0.0 0.00 0.00 0.00 96 1016.2
20260508101730 10 76 0.0 0.0 0.00 0.00 0.00 96 1016.1
20260508101228 10 76 0.0 0.0 0.00 0.00 0.00 96 1016.1
20260508100726 10 76 0.0 0.0 0.00 0.00 0.00 97 1016.1
20260508100224 10 76 0.0 0.0 0.00 0.00 0.00 97 1015.9
20260508095719 10 74 0.0 0.0 0.00 0.00 0.00 97 1015.8
20260508095217 10 74 0.0 0.0 0.00 0.00 0.00 97 1015.9
20260508094713 10 74 0.0 0.0 0.00 0.00 0.00 97 1015.9
20260508094210 10 74 0.0 0.0 0.00 0.00 0.00 97 1015.8
20260508093707 10 74 0.0 0.0 0.00 0.00 0.00 97 1015.8
20260508093205 10 74 0.0 0.0 0.00 0.00 0.00 97 1015.9
20260508092702 10 74 0.0 0.0 0.00 0.00 0.00 97 1015.6
20260508092201 10 74 0.0 0.0 0.00 0.00 0.00 97 1015.6
20260508091658 10 74 0.0 0.0 0.00 0.00 0.00 96 1015.7
20260508091155 10 74 0.0 0.0 0.00 0.00 0.00 97 1015.6
20260508090652 10 74 0.0 0.0 0.00 0.00 0.00 97 1015.5
20260508090150 10 74 0.0 0.0 0.00 0.00 0.00 97 1015.6
20260508085645 10 74 0.0 0.0 0.00 0.00 0.00 97 1015.6
20260508085143 11 74 0.0 0.0 0.00 0.00 0.00 96 1015.6
20260508084639 11 74 0.0 0.0 0.00 0.00 0.00 96 1015.6
20260508084136 11 74 0.0 0.0 0.00 0.00 0.00 97 1015.4
20260508083634 11 74 0.0 0.0 0.00 0.00 0.00 97 1015.4
20260508083131 11 74 0.0 0.0 0.00 0.00 0.00 96 1015.3
20260508082626 11 74 0.0 1.6 0.00 0.00 0.00 96 1015.3
20260508082124 11 74 0.0 0.0 0.00 0.00 0.00 96 1015.3
20260508081621 11 74 0.0 0.0 0.00 0.00 0.00 96 1015.5
20260508081117 11 74 0.0 0.0 0.00 0.00 0.00 96 1015.3
20260508080615 11 74 0.0 0.0 0.00 0.00 0.00 96 1015.2
20260508080113 11 74 0.0 0.0 0.00 0.00 0.00 96 1015.2
20260508075609 11 74 0.0 0.0 0.00 0.00 0.00 96 1015.0
20260508075106 11 74 0.0 0.0 0.00 0.00 0.00 96 1015.0
20260508074604 11 74 0.0 0.0 0.00 0.00 0.00 96 1015.0
20260508074101 11 74 0.0 0.0 0.00 0.00 0.00 96 1014.9
20260508073558 11 74 0.0 0.0 0.00 0.00 0.00 96 1014.8
20260508073056 11 74 0.0 0.0 0.00 0.00 0.00 96 1014.8
20260508072551 11 74 0.0 0.0 0.00 0.00 0.00 96 1014.9
20260508072048 11 74 0.0 0.0 0.00 0.00 0.00 96 1014.8
20260508071546 11 74 0.0 0.0 0.00 0.00 0.00 96 1014.9
20260508071044 11 74 0.0 0.0 0.00 0.00 0.00 96 1014.9
20260508070541 11 74 0.0 0.0 0.00 0.00 0.00 96 1014.8
20260508070040 11 74 0.0 0.0 0.00 0.00 0.00 96 1014.7
20260508065537 11 74 0.0 0.0 0.00 0.00 0.00 96 1014.9
20260508065035 11 74 0.0 0.0 0.00 0.00 0.00 96 1014.8
20260508064532 11 74 0.0 0.0 0.00 0.00 0.00 96 1014.7
20260508064030 11 74 0.0 0.0 0.00 0.00 0.00 96 1014.6
20260508063527 11 74 0.0 0.0 0.00 0.00 0.00 96 1014.8
20260508063025 12 74 0.0 0.0 0.00 0.00 0.00 96 1014.9
20260508062522 12 74 0.0 0.0 0.00 0.00 0.00 96 1014.9
20260508062018 12 74 0.0 0.0 0.00 0.00 0.00 96 1014.7
20260508061517 12 74 0.0 0.0 0.00 0.00 0.00 96 1014.7
20260508061013 12 74 0.0 0.0 0.00 0.00 0.00 96 1014.9
20260508060510 12 74 0.0 0.0 0.00 0.00 0.00 96 1014.8
20260508060008 12 74 0.0 0.0 0.00 0.00 0.00 96 1014.8
20260508055503 12 74 0.0 0.0 0.00 0.00 0.00 96 1015.0
20260508055000 12 74 0.0 0.0 0.00 0.00 0.00 96 1014.9
20260508054457 12 74 0.0 0.0 0.00 0.00 0.00 95 1014.7
20260508053953 12 74 0.0 0.0 0.00 0.00 0.00 96 1014.9
20260508053450 12 74 0.0 0.0 0.00 0.00 0.00 95 1015.0
20260508052948 12 74 0.0 0.0 0.00 0.00 0.00 95 1014.7
20260508052446 12 74 0.0 0.0 0.00 0.00 0.00 95 1014.9
20260508051942 12 74 0.0 0.0 0.00 0.00 0.00 95 1014.8
20260508051437 12 74 0.0 0.0 0.00 0.00 0.00 95 1014.9
20260508050934 12 74 0.0 0.0 0.00 0.00 0.00 95 1014.8
20260508050431 12 74 0.0 0.0 0.00 0.00 0.00 95 1014.8
20260508045927 12 74 0.0 0.0 0.00 0.00 0.00 95 1014.6
20260508045425 12 74 0.0 0.0 0.00 0.00 0.00 95 1014.6
20260508044922 12 74 0.0 0.0 0.00 0.00 0.00 95 1014.7
20260508044419 13 74 0.0 0.0 0.00 0.00 0.00 95 1014.6
20260508043914 13 74 0.0 0.0 0.00 0.00 0.00 95 1014.5
20260508043412 13 74 0.0 0.0 0.00 0.00 0.00 94 1014.4
20260508042908 13 74 0.0 0.0 0.00 0.00 0.00 94 1014.3
20260508042406 13 74 0.0 0.0 0.00 0.00 0.00 94 1014.2
20260508041903 13 74 0.0 0.0 0.00 0.00 0.00 94 1014.1
20260508041359 13 74 0.0 0.0 0.00 0.00 0.00 94 1014.3
20260508040855 13 74 0.0 0.0 0.00 0.00 0.00 94 1014.2
20260508040353 13 74 0.0 0.0 0.00 0.00 0.00 94 1014.2
20260508035851 13 74 0.0 0.0 0.00 3.43 3.43 93 1014.2
20260508035348 13 74 0.0 0.0 0.00 3.43 3.43 93 1014.2
20260508034844 13 74 0.0 0.0 0.00 3.43 3.43 93 1014.4
20260508034342 13 74 0.0 0.0 0.00 3.43 3.43 93 1014.3
20260508033838 13 74 0.0 0.0 0.00 3.43 3.43 93 1014.0
20260508033336 13 74 0.0 0.0 0.00 3.43 3.43 92 1014.0
20260508032833 13 74 0.0 0.0 0.00 3.43 3.43 92 1014.0
20260508032331 13 74 0.0 0.0 0.00 3.43 3.43 92 1014.1
20260508031827 14 44 0.0 0.0 0.00 3.43 3.43 92 1014.1
20260508031324 14 44 0.0 0.0 0.00 3.43 3.43 92 1014.2
20260508030821 14 44 0.0 0.0 0.00 3.43 3.43 92 1013.8
20260508030318 14 44 0.0 0.0 0.00 3.43 3.43 91 1014.1
20260508025814 14 44 0.0 1.6 0.00 3.43 3.43 91 1014.1
20260508025312 14 75 0.0 0.0 0.00 3.43 3.43 91 1014.1
20260508024808 14 75 0.0 0.0 0.00 3.43 3.43 92 1013.9
20260508024305 14 74 0.0 1.6 0.00 3.43 3.43 92 1014.0
20260508023802 14 83 0.0 0.0 0.00 3.43 3.43 92 1014.1
20260508023258 14 83 0.0 0.0 0.00 3.43 3.43 92 1013.8
20260508022754 14 83 0.0 0.0 0.00 3.43 3.43 92 1013.7
20260508022251 14 83 0.0 0.0 0.00 3.43 3.43 92 1013.8
20260508021748 14 83 0.0 0.0 0.00 3.43 3.43 92 1013.6
20260508021243 14 83 0.0 0.0 0.00 3.43 3.43 91 1013.6
20260508020741 14 61 0.0 0.0 0.00 3.43 3.43 91 1013.3
20260508020238 14 58 0.0 1.6 0.00 3.43 3.43 91 1013.2
20260508015735 15 48 0.0 0.0 0.00 3.43 3.43 91 1013.5
20260508015232 15 57 0.0 0.0 0.00 3.43 3.43 90 1013.1
20260508014729 15 42 0.0 0.0 0.00 3.43 3.43 91 1013.2
20260508014226 15 42 0.0 3.2 0.00 3.43 3.43 91 1013.2
20260508013721 15 113 1.6 1.6 0.00 3.43 3.43 91 1012.8
20260508013218 15 75 0.0 0.0 0.00 3.43 3.43 91 1012.7
20260508012716 15 102 0.0 0.0 0.00 3.43 3.43 91 1012.8
20260508012213 15 108 0.0 1.6 0.00 3.43 3.43 91 1012.6
20260508011711 15 104 0.0 0.0 0.00 3.43 3.43 91 1012.6
20260508011208 15 121 0.0 1.6 0.00 3.43 3.43 91 1012.6
20260508010705 15 113 1.6 3.2 0.00 3.43 3.43 91 1012.7
20260508010203 15 86 0.0 1.6 0.00 3.43 3.43 91 1012.5
20260508005700 15 107 0.0 0.0 0.00 3.43 3.43 91 1012.6
20260508005156 15 108 0.0 1.6 0.00 3.43 3.43 91 1012.5
20260508004652 15 62 0.0 0.0 0.00 3.43 3.43 91 1012.3
20260508004148 15 97 0.0 1.6 0.00 3.43 3.43 90 1012.3
20260508003645 15 87 0.0 1.6 0.00 3.43 3.43 91 1011.9
20260508003143 15 85 0.0 1.6 0.00 3.43 3.43 90 1011.8
20260508002639 15 110 3.2 4.8 0.00 3.43 3.43 90 1011.9
20260508002137 15 129 1.6 3.2 0.00 3.43 3.43 90 1011.4
20260508001631 15 142 0.0 1.6 0.00 3.43 3.43 90 1011.3
20260508001128 15 338 1.6 3.2 0.00 3.43 3.43 90 1011.2
20260508000624 15 137 0.0 1.6 0.00 3.43 3.43 89 1010.7
20260508000122 15 44 3.2 4.8 0.00 3.43 3.43 89 1010.8
20260507235618 15 40 1.6 4.8 0.00 3.43 3.43 90 1010.9
20260507235116 15 131 0.0 0.0 0.00 3.43 3.43 90 1010.4
20260507234612 15 35 0.0 1.6 0.00 3.43 3.43 90 1010.6
20260507234108 15 103 0.0 3.2 0.00 3.43 3.43 90 1010.6
20260507233605 15 112 0.0 1.6 0.00 3.43 3.43 90 1010.5
20260507233104 15 85 3.2 9.7 0.13 3.43 3.43 91 1010.2
20260507232600 15 115 3.2 6.4 0.13 3.43 3.43 90 1010.1
20260507232058 15 57 3.2 3.2 0.48 3.40 3.40 89 1010.4
20260507231553 15 349 4.8 6.4 1.37 3.40 3.40 87 1010.5
20260507231051 16 153 1.6 4.8 0.89 3.33 3.33 85 1009.8
20260507230547 16 8 3.2 11.3 0.00 3.17 3.17 82 1010.0
20260507230044 16 122 0.0 6.4 0.00 3.17 3.17 80 1009.5
20260507225539 17 13 3.2 6.4 0.00 3.17 3.17 80 1009.3
20260507225036 17 44 1.6 14.5 0.00 3.17 3.17 78 1009.4
20260507224531 17 42 3.2 12.9 0.00 3.17 3.17 78 1009.0
20260507224028 17 29 0.0 6.4 0.00 3.17 3.17 79 1009.1
20260507223524 17 54 0.0 3.2 0.00 3.17 3.17 78 1008.9
20260507223022 18 54 3.2 11.3 0.00 3.17 3.17 78 1009.1
20260507222519 18 329 3.2 14.5 0.00 3.17 3.17 78 1008.9
20260507222015 19 100 3.2 9.7 0.00 3.17 3.17 77 1008.8
20260507221512 20 13 1.6 4.8 0.00 3.17 3.17 75 1008.7
20260507221008 21 58 1.6 24.1 0.00 3.17 3.17 70 1008.6
20260507220506 25 350 4.8 16.1 0.00 3.17 3.17 60 1008.4
20260507220003 25 288 4.8 6.4 0.00 3.17 3.17 61 1007.9
20260507215458 25 316 0.0 4.8 0.00 3.17 3.17 63 1007.6
20260507214957 24 206 0.0 1.6 0.00 3.17 3.17 62 1007.5
20260507214454 24 225 0.0 3.2 0.00 3.17 3.17 64 1007.6
20260507213949 25 281 0.0 3.2 0.00 3.17 3.17 63 1007.5
20260507213446 25 107 0.0 3.2 0.00 3.17 3.17 62 1007.4
20260507212943 25 128 1.6 3.2 0.00 3.17 3.17 63 1007.3
20260507212438 25 103 1.6 3.2 0.00 3.17 3.17 62 1007.1
20260507211936 25 262 1.6 3.2 0.00 3.17 3.17 61 1007.2
20260507211432 25 186 3.2 4.8 0.00 3.17 3.17 59 1007.4
20260507210929 25 256 1.6 1.6 0.00 3.17 3.17 60 1007.1
20260507210426 25 271 1.6 4.8 0.00 3.17 3.17 59 1007.0
20260507205923 25 138 0.0 3.2 0.00 3.17 3.17 59 1007.2
20260507205420 25 147 1.6 1.6 0.00 3.17 3.17 60 1007.2
20260507204916 25 300 4.8 6.4 0.00 3.17 3.17 61 1007.5
20260507204412 25 341 0.0 1.6 0.00 3.17 3.17 60 1007.4
20260507203910 25 340 1.6 3.2 0.00 3.17 3.17 59 1007.4
20260507203408 25 108 1.6 1.6 0.00 3.17 3.17 59 1007.5
20260507202904 25 224 1.6 3.2 0.00 3.17 3.17 61 1007.6
20260507202401 25 200 1.6 3.2 0.00 3.17 3.17 60 1007.7
20260507201856 25 228 3.2 4.8 0.00 3.17 3.17 60 1007.8
20260507201352 25 271 3.2 4.8 0.00 3.17 3.17 61 1007.4
20260507200848 25 272 1.6 1.6 0.00 3.17 3.17 61 1007.7
20260507200344 25 160 1.6 3.2 0.00 3.17 3.17 61 1007.6
20260507195841 25 135 0.0 4.8 0.00 3.17 3.17 63 1007.6
20260507195338 25 297 3.2 6.4 0.00 3.17 3.17 63 1007.9
20260507194835 24 158 0.0 1.6 0.00 3.17 3.17 64 1007.9
20260507194331 24 260 0.0 1.6 0.00 3.17 3.17 64 1008.1
20260507193828 24 89 0.0 1.6 0.00 3.17 3.17 62 1008.0
20260507193325 25 136 0.0 1.6 0.00 3.17 3.17 60 1008.3
20260507192821 24 105 1.6 1.6 0.00 3.17 3.17 62 1008.4
20260507192318 24 110 0.0 1.6 0.00 3.17 3.17 62 1008.3
20260507191814 24 156 1.6 3.2 0.00 3.17 3.17 62 1008.6
20260507191311 24 329 6.4 9.7 0.00 3.17 3.17 64 1008.6
20260507190808 24 223 3.2 3.2 0.00 3.17 3.17 65 1008.6
20260507190306 24 268 3.2 4.8 0.00 3.17 3.17 62 1008.7
20260507185805 25 209 1.6 4.8 0.00 3.17 3.17 63 1008.6
20260507185301 25 261 1.6 3.2 0.00 3.17 3.17 64 1008.7
20260507184758 25 174 0.0 1.6 0.00 3.17 3.17 66 1008.5
20260507184256 25 219 1.6 3.2 0.00 3.17 3.17 64 1008.7
20260507183753 23 267 1.6 1.6 0.00 3.17 3.17 68 1008.5
20260507183250 23 269 3.2 6.4 0.00 3.17 3.17 70 1008.7
20260507182748 23 309 3.2 4.8 0.00 3.17 3.17 68 1008.7
20260507182248 23 329 3.2 4.8 0.00 3.17 3.17 69 1008.6
20260507181745 23 297 0.0 4.8 0.00 3.17 3.17 69 1008.4
20260507181241 22 286 1.6 3.2 0.00 3.17 3.17 71 1008.5
20260507180738 23 267 1.6 3.2 0.00 3.17 3.17 72 1008.6
20260507180235 23 357 3.2 9.7 0.00 3.17 3.17 67 1008.7
20260507175730 22 294 1.6 3.2 0.00 3.17 3.17 76 1008.9
20260507175227 22 272 0.0 3.2 0.00 3.17 3.17 77 1008.9
20260507174725 22 67 1.6 3.2 0.00 3.17 3.17 77 1009.1
20260507174223 21 277 3.2 6.4 0.00 3.17 3.17 80 1009.3
20260507173720 21 313 3.2 4.8 0.00 3.17 3.17 81 1009.5
20260507173217 21 293 1.6 3.2 0.00 3.17 3.17 83 1009.3
20260507172713 20 294 3.2 4.8 0.00 3.17 3.17 85 1009.4
20260507172210 20 298 3.2 3.2 0.00 3.17 3.17 86 1009.3
20260507171710 20 6 1.6 3.2 0.00 3.17 3.17 86 1009.1
20260507171208 20 45 1.6 3.2 0.00 3.17 3.17 85 1008.8
20260507170704 20 304 0.0 0.0 0.00 3.17 3.17 89 1009.3
20260507170202 20 299 3.2 4.8 0.00 3.17 3.17 88 1009.7
20260507165657 20 301 0.0 1.6 0.00 3.17 3.17 88 1009.5
20260507165154 20 300 0.0 1.6 0.00 3.17 3.17 87 1009.4
20260507164650 20 300 1.6 3.2 0.00 3.17 3.17 88 1009.6
20260507164147 21 19 3.2 4.8 0.00 3.17 3.17 85 1009.4
20260507163644 20 330 0.0 0.0 0.00 3.17 3.17 91 1009.5
20260507163142 20 330 0.0 1.6 0.00 3.17 3.17 91 1009.8
20260507162637 19 259 0.0 3.2 0.00 3.17 3.17 93 1010.2
20260507162134 19 286 1.6 4.8 0.00 3.17 3.17 92 1010.0
20260507161630 19 270 1.6 3.2 0.00 3.17 3.17 92 1010.1
20260507161127 19 295 3.2 4.8 0.00 3.17 3.17 92 1009.8
20260507160623 19 279 1.6 9.7 0.00 3.17 3.17 91 1009.9
20260507160120 20 317 3.2 3.2 0.00 3.17 3.17 91 1009.8
20260507155615 20 266 1.6 1.6 0.00 3.17 3.17 91 1009.4
20260507155112 20 146 1.6 1.6 0.00 3.17 3.17 90 1009.6
20260507154609 20 103 0.0 1.6 0.00 3.17 3.17 90 1009.3
20260507154106 20 100 0.0 1.6 0.00 3.17 3.17 91 1008.8
20260507153603 20 100 0.0 0.0 0.00 3.17 3.17 91 1008.6
20260507153059 20 101 0.0 0.0 0.00 3.17 3.17 91 1008.6
20260507152555 20 67 0.0 0.0 0.00 3.17 3.17 93 1008.5
20260507152052 20 148 0.0 1.6 0.00 3.17 3.17 93 1008.7
20260507151548 19 149 0.0 1.6 0.00 3.17 3.17 93 1008.7
20260507151045 19 149 0.0 0.0 0.18 3.17 3.17 95 1008.9
20260507150542 18 131 0.0 0.0 0.18 3.17 3.17 95 1008.8
20260507150039 18 134 0.0 1.6 0.00 3.15 3.15 95 1009.2